Cook, MN

9:02 PM CDT on July 25, 2017 (GMT -0500)
Cook Municipal

Weather History for KCQM - February, 2014

Change the Weather History Date:

Tuesday, February 25, 2014

  Actual Average Record
Temperature  
Mean Temperature -10 °F -  
Max Temperature 3 °F 26 °F 42 °F (1998)
Min Temperature -23 °F 6 °F -23 °F (2003)
Degree Days  
Heating Degree Days 75    
Moisture  
Dew Point -17 °F    
Average Humidity 69    
Maximum Humidity 84    
Minimum Humidity 50    
Precipitation  
Precipitation 0.00 in - - ()
Sea Level Pressure  
Sea Level Pressure 30.13 in    
Wind  
Wind Speed 7 mph (West)    
Max Wind Speed 17 mph    
Max Gust Speed 25 mph    
Visibility 9 miles    
Events Snow    
Averages and records for this station are not official NWS values.
T = Trace of Precipitation, MM = Missing Value Source: NWS Daily Summary

Daily Weather History Graph

Daily Weather History Graph

Search for Another Location

Airport or City:

Trip Planner

Search our weather history database for the weather conditions in past years. The results will help you decide how hot, cold, wet, or windy it might be!

Date:

Astronomy

Feb. 25, 2014 Rise Set
Actual Time 6:58 AM CST 5:49 PM CST
Civil Twilight 6:27 AM CST 6:20 PM CST
Nautical Twilight 5:51 AM CST 6:56 PM CST
Astronomical Twilight 5:16 AM CST 7:32 PM CST
Moon 4:06 AM CST (2/25) 1:43 PM CST (2/25)
Length of Visible Light 11h 52m
Length of Day
10h 50m
Waning Crescent, 18% of the Moon is Illuminated
Feb 25
Waning Crescent
Mar 1
New
Mar 8
First Quarter
Mar 16
Full
Mar 23
Last Quarter

Hourly Weather History & Observations

Time (CST) Temp. Windchill Dew Point Humidity Pressure Visibility Wind Dir Wind Speed Gust Speed Precip Events Conditions
12:15 AM -9.4 °F -25.6 °F -13.0 °F 84% 30.16 in 10.0 mi West 8.1 mph - N/A   Clear
12:35 AM -9.4 °F -22.7 °F -14.8 °F 77% 30.16 in 10.0 mi West 5.8 mph - N/A   Clear
12:55 AM -11.2 °F -24.8 °F -14.8 °F 84% 30.15 in 10.0 mi West 5.8 mph - N/A   Scattered Clouds
1:15 AM -11.2 °F -24.8 °F -16.6 °F 77% 30.15 in 10.0 mi West 5.8 mph - N/A   Clear
1:35 AM -11.2 °F -26.4 °F -16.6 °F 77% 30.15 in 10.0 mi West 6.9 mph - N/A   Clear
1:55 AM -13.0 °F -28.6 °F -16.6 °F 84% 30.16 in 10.0 mi West 6.9 mph - N/A   Scattered Clouds
2:15 AM -13.0 °F -27.0 °F -16.6 °F 84% 30.16 in 10.0 mi West 5.8 mph - N/A   Scattered Clouds
2:35 AM -13.0 °F -25.1 °F -16.6 °F 84% 30.15 in 10.0 mi West 4.6 mph - N/A   Scattered Clouds
2:55 AM -16.6 °F -26.8 °F -20.2 °F 84% 30.14 in 10.0 mi West 3.5 mph - N/A   Clear
3:10 AM -16.6 °F -29.3 °F -20.2 °F 84% 30.15 in 10.0 mi West 4.6 mph - N/A   Scattered Clouds
3:35 AM -16.6 °F -26.8 °F -20.2 °F 84% 30.13 in 5.0 mi West 3.5 mph - N/A Snow Light Snow
3:55 AM -16.6 °F - -20.2 °F 84% 30.13 in 10.0 mi Calm Calm - N/A   Scattered Clouds
4:15 AM -16.6 °F - -20.2 °F 84% 30.13 in 10.0 mi Calm Calm - N/A   Clear
4:35 AM -16.6 °F - -20.2 °F 84% 30.12 in 10.0 mi Calm Calm - N/A   Clear
4:55 AM -18.4 °F - -23.8 °F 76% 30.12 in 10.0 mi Calm Calm - N/A Snow Light Snow
5:15 AM -18.4 °F -28.9 °F -23.8 °F 76% 30.12 in 10.0 mi West 3.5 mph - N/A   Clear
5:35 AM -20.2 °F -30.9 °F -25.6 °F 76% 30.12 in 10.0 mi West 3.5 mph - N/A   Clear
5:55 AM -20.2 °F - -25.6 °F 76% 30.12 in 10.0 mi Calm Calm - N/A   Clear
6:15 AM -20.2 °F -30.9 °F -25.6 °F 76% 30.12 in 10.0 mi WSW 3.5 mph - N/A   Clear
6:35 AM -20.2 °F -30.9 °F -25.6 °F 76% 30.12 in 10.0 mi WSW 3.5 mph - N/A   Clear
6:55 AM -20.2 °F -30.9 °F -27.4 °F 69% 30.12 in 10.0 mi WSW 3.5 mph - N/A   Clear
7:15 AM -23.8 °F -35.0 °F -27.4 °F 83% 30.12 in 10.0 mi West 3.5 mph - N/A   Clear
7:35 AM -18.4 °F -28.9 °F -23.8 °F 76% 30.12 in 10.0 mi West 3.5 mph - N/A   Clear
7:54 AM -18.4 °F -33.4 °F -23.8 °F 76% 30.12 in 10.0 mi West 5.8 mph - N/A   Clear
8:15 AM -16.6 °F -32.9 °F -22.0 °F 76% 30.13 in 10.0 mi West 6.9 mph - N/A   Clear
8:35 AM -14.8 °F -32.2 °F -20.2 °F 77% 30.12 in 10.0 mi West 8.1 mph - N/A   Clear
8:55 AM -14.8 °F -29.1 °F -18.4 °F 84% 30.13 in 10.0 mi West 5.8 mph - N/A   Clear
9:15 AM -11.2 °F -29.0 °F -16.6 °F 77% 30.12 in 10.0 mi West 9.2 mph - N/A   Clear
9:34 AM -9.4 °F -22.7 °F -14.8 °F 77% 30.12 in 10.0 mi West 5.8 mph - N/A   Clear
9:55 AM -7.6 °F -22.1 °F -13.0 °F 77% 30.13 in 10.0 mi West 6.9 mph - N/A   Clear
10:15 AM -7.6 °F -23.4 °F -13.0 °F 77% 30.13 in 10.0 mi West 8.1 mph - N/A   Clear
10:34 AM -5.8 °F -21.2 °F -13.0 °F 71% 30.14 in 10.0 mi West 8.1 mph - N/A   Clear
10:55 AM -2.2 °F -16.8 °F -11.2 °F 66% 30.12 in 10.0 mi West 8.1 mph - N/A   Scattered Clouds
11:15 AM -2.2 °F -20.7 °F -11.2 °F 66% 30.12 in 7.0 mi WNW 12.7 mph 19.6 mph N/A   Scattered Clouds
11:35 AM -0.4 °F -15.7 °F -11.2 °F 60% 30.12 in 7.0 mi WNW 9.2 mph 17.3 mph N/A   Scattered Clouds
11:55 AM -0.4 °F -18.4 °F -11.2 °F 60% 30.12 in 4.0 mi WNW 12.7 mph 19.6 mph N/A   Haze
12:14 PM -0.4 °F -17.6 °F -11.2 °F 60% 30.12 in 7.0 mi WNW 11.5 mph 19.6 mph N/A   Mostly Cloudy
12:35 PM -0.4 °F -19.2 °F -11.2 °F 60% 30.12 in 3.0 mi WNW 13.8 mph 25.3 mph N/A   Haze
12:55 PM 1.4 °F -16.1 °F -11.2 °F 56% 30.12 in 10.0 mi WNW 12.7 mph 18.4 mph N/A   Mostly Cloudy
1:14 PM 1.4 °F -14.5 °F -11.2 °F 56% 30.11 in 10.0 mi WNW 10.4 mph 19.6 mph N/A   Mostly Cloudy
1:35 PM 1.4 °F -15.3 °F -11.2 °F 56% 30.11 in 5.0 mi WNW 11.5 mph 21.9 mph N/A   Haze
1:55 PM 3.2 °F -16.5 °F -9.4 °F 56% 30.11 in 7.0 mi West 17.3 mph 21.9 mph N/A   Overcast
2:14 PM 1.4 °F -18.2 °F -9.4 °F 61% 30.11 in 3.0 mi West 16.1 mph 23.0 mph N/A   Haze
2:35 PM -0.4 °F -16.7 °F -9.4 °F 66% 30.11 in 4.0 mi WNW 10.4 mph 20.7 mph N/A   Haze
2:55 PM -0.4 °F -19.9 °F -9.4 °F 66% 30.11 in 5.0 mi WNW 15.0 mph 24.2 mph N/A   Haze
3:14 PM 1.4 °F -17.6 °F -11.2 °F 56% 30.11 in 7.0 mi WNW 15.0 mph 19.6 mph N/A   Mostly Cloudy
3:35 PM -0.4 °F -18.4 °F -13.0 °F 55% 30.12 in 10.0 mi WNW 12.7 mph 18.4 mph N/A   Scattered Clouds
3:55 PM 1.4 °F -18.8 °F -13.0 °F 51% 30.12 in 5.0 mi WNW 17.3 mph 21.9 mph N/A   Haze
4:14 PM -0.4 °F -19.2 °F -14.8 °F 51% 30.12 in 7.0 mi WNW 13.8 mph 20.7 mph N/A   Scattered Clouds
4:35 PM -0.4 °F -16.7 °F -14.8 °F 51% 30.13 in 7.0 mi WNW 10.4 mph - N/A Snow Light Snow
4:55 PM -0.4 °F -17.6 °F -14.8 °F 51% 30.13 in 10.0 mi WNW 11.5 mph 19.6 mph N/A   Clear
5:14 PM -2.2 °F -21.5 °F -14.8 °F 55% 30.14 in 7.0 mi WNW 13.8 mph 23.0 mph N/A Snow Light Snow
5:35 PM -2.2 °F -19.9 °F -16.6 °F 50% 30.14 in 10.0 mi WNW 11.5 mph - N/A   Clear
5:55 PM -4.0 °F -23.7 °F -16.6 °F 55% 30.15 in 10.0 mi WNW 13.8 mph 20.7 mph N/A   Clear
6:14 PM -5.8 °F -23.4 °F -16.6 °F 60% 30.15 in 10.0 mi WNW 10.4 mph 23.0 mph N/A   Clear
6:35 PM -5.8 °F -23.4 °F -16.6 °F 60% 30.15 in 10.0 mi WNW 10.4 mph 17.3 mph N/A   Clear
6:55 PM -7.6 °F -25.7 °F -16.6 °F 65% 30.16 in 10.0 mi West 10.4 mph - N/A   Clear
7:14 PM -7.6 °F -24.6 °F -18.4 °F 59% 30.16 in 10.0 mi WNW 9.2 mph - N/A   Clear
7:35 PM -7.6 °F -24.6 °F -18.4 °F 59% 30.15 in 10.0 mi WNW 9.2 mph - N/A   Clear
7:55 PM -9.4 °F -24.3 °F -18.4 °F 65% 30.15 in 10.0 mi West 6.9 mph - N/A   Clear
8:14 PM -9.4 °F -26.8 °F -18.4 °F 65% 30.15 in 10.0 mi West 9.2 mph - N/A   Clear
8:35 PM -9.4 °F -26.8 °F -18.4 °F 65% 30.15 in 10.0 mi West 9.2 mph - N/A   Clear
8:55 PM -9.4 °F -24.3 °F -18.4 °F 65% 30.15 in 10.0 mi West 6.9 mph - N/A   Clear
9:14 PM -9.4 °F -27.9 °F -18.4 °F 65% 30.15 in 10.0 mi West 10.4 mph 17.3 mph N/A   Clear
9:35 PM -9.4 °F -29.8 °F -18.4 °F 65% 30.15 in 10.0 mi West 12.7 mph 17.3 mph N/A   Clear
9:55 PM -11.2 °F -31.1 °F -18.4 °F 70% 30.14 in 10.0 mi West 11.5 mph - N/A   Clear
10:14 PM -11.2 °F -26.4 °F -18.4 °F 70% 30.14 in 10.0 mi West 6.9 mph - N/A   Clear
10:35 PM -11.2 °F -30.1 °F -18.4 °F 70% 30.13 in 10.0 mi West 10.4 mph 16.1 mph N/A   Clear
10:55 PM -11.2 °F -27.8 °F -18.4 °F 70% 30.13 in 10.0 mi West 8.1 mph - N/A   Clear
11:14 PM -13.0 °F -31.3 °F -18.4 °F 77% 30.12 in 10.0 mi West 9.2 mph - N/A   Clear
11:35 PM -13.0 °F -31.3 °F -20.2 °F 70% 30.11 in 10.0 mi West 9.2 mph - N/A   Clear
11:54 PM -14.8 °F -32.2 °F -20.2 °F 77% 30.10 in 10.0 mi West 8.1 mph - N/A   Clear